Wetbulb
25.19 24.83 24.95 24.40 23.73 23.78 23.54 23.14 23.18 23.31 23.50 23.81 24.09 23.60 23.22 22.77 22.61 21.60 21.48 22.04 21.73 22.09 22.39 22.71 23.40 24.11 24.66 25.28 26.52 27.60 27.54 27.64 26.87 28.88 31.49 31.86 31.23 32.12 32.95 31.27 32.40 32.73 33.99
25.32 24.54 25.23 24.52 24.23 23.32 22.71 22.93 23.21 22.90 23.48 23.36 23.54 22.82 22.35 22.21 22.09 21.48 21.04 21.29 21.05 21.17 21.80 22.24 22.42 24.92 23.42 23.97 24.42 24.75 25.42 26.36 26.23 24.66 27.75 28.83 28.65 30.02 31.23 31.09 31.49 32.41 32.14
25.00 24.71 24.55 24.17 23.19 22.56 22.39 22.69 22.81 22.22 21.63 21.55 20.91 20.00 19.99 20.25 20.25 20.41 20.67 21.23 21.53 21.83 22.13 22.05 22.28 22.49 22.30 23.09 23.48 23.84 24.58 26.33 26.18 25.86 25.76 28.32 28.95 28.08 28.19 28.68 29.84 31.02 31.69
24.97 24.24 23.57 23.11 22.55 21.66 21.79 21.36 20.45 20.07 18.73 18.13 18.19 18.19 18.26 18.30 18.75 19.77 20.34 19.80 19.57 20.26 20.92 21.38 21.81 22.10 22.16 22.08 22.60 22.98 24.79 24.91 25.17 24.93 25.31 26.08 27.28 28.68 26.37 27.19 27.94 28.06 29.77
23.30 23.35 22.94 22.63 21.48 20.64 19.33 18.39 17.86 17.76 17.33 16.96 16.53 16.15 16.42 16.77 19.42 18.74 18.99 18.67 18.31 18.20 18.73 19.23 19.86 20.91 23.62 24.25 23.36 23.00 23.23 22.58 22.79 22.99 24.06 25.37 25.51 25.98 26.41 27.44 26.87 28.08 29.04
22.97 22.42 21.23 20.39 19.87 18.08 17.36 16.71 16.33 15.69 14.71 14.60 14.11 13.46 12.77 15.59 18.62 20.40 20.54 18.06 17.42 16.44 15.57 16.51 17.19 17.75 19.38 21.83 23.18 24.80 25.30 23.01 21.63 22.24 24.14 24.31 25.29 26.54 27.99 27.69 27.82 27.21 25.82
19.74 16.92 17.08 16.80 15.85 15.26 14.75 14.25 13.43 12.29 12.43 11.69 11.56 11.54 10.90 11.52 17.28 19.67 19.91 17.20 16.21 15.59 14.94 14.94 15.44 17.11 16.84 17.00 18.70 20.72 21.31 22.87 24.90 23.03 21.61 22.02 22.69 24.90 26.49 27.00 28.12 27.61 27.56
17.53 15.11 15.00 14.91 12.73 12.76 11.79 10.74 10.55 10.41 9.70 9.31 9.34 8.98 9.63 10.88 16.27 17.71 18.58 16.31 14.61 14.34 14.35 14.48 14.37 14.69 15.78 16.69 16.69 16.70 17.80 18.82 19.82 20.42 19.64 19.78 20.72 21.81 22.44 23.79 25.21 26.48 28.97
16.55 16.37 14.38 12.38 9.55 9.77 5.91 7.19 8.06 7.49 7.19 6.02 8.86 6.60 6.06 6.71 13.44 16.47 16.72 14.50 13.95 13.43 14.29 14.64 14.73 14.46 17.21 19.86 17.91 16.88 17.60 18.40 21.68 23.30 24.09 25.27 26.34 26.95 27.25 24.73 22.98 24.06 23.28
16.10 16.09 13.44 11.31 5.64 4.73 7.07 5.35 5.70 3.13 7.12 7.36 7.02 6.08 5.49 4.23 11.04 14.81 16.22 14.40 11.90 12.68 13.46 14.74 17.62 17.86 20.40 21.69 18.58 17.24 15.06 16.01 16.96 16.41 17.82 19.87 21.95 21.27 24.25 22.76 21.74 19.39 20.81
13.60 11.41 9.88 9.05 4.96 4.14 2.86 3.68 0.72 0.57 4.15 0.96 2.59 3.26 3.31 4.85 5.72 14.14 17.07 15.70 14.12 13.59 14.64 15.16 16.10 19.75 20.97 21.98 22.70 19.14 17.78 19.47 19.46 18.94 18.74 19.06 19.58 19.58 19.79 21.06 22.21 22.13 20.41
9.42 8.59 7.26 5.08 2.74 4.70 -5.73 -3.86 -4.54 -3.80 -4.01 -3.11 -2.12 0.25 3.95 6.08 10.13 13.89 17.61 19.19 19.48 15.47 14.89 16.24 16.76 20.88 22.56 24.10 24.09 25.19 26.06 24.53 19.48 16.20 14.81 14.41 14.78 15.40 17.23 18.83 20.36 22.23 23.83
5.49 4.57 1.39 1.53 4.11 3.83 -3.70 -1.30 -2.67 -6.07 -5.63 -2.22 0.66 0.83 2.87 6.75 7.84 15.23 17.63 18.89 20.02 17.71 18.02 19.62 22.60 22.95 23.34 22.36 22.05 22.93 21.63 19.67 17.53 15.69 14.83 15.19 16.05 16.87 18.08 17.73 18.70 19.29 20.77
-2.07 2.56 3.61 2.30 2.45 1.83 2.95 2.36 -4.49 -4.99 -2.72 -0.82 -0.35 0.72 3.25 8.99 10.90 11.72 13.19 16.73 18.91 17.80 19.51 18.83 18.05 17.17 17.59 17.47 14.89 16.63 16.13 15.43 14.53 13.84 13.91 15.45 16.66 15.97 15.12 15.89 14.16 15.00 14.79
-0.58 1.77 3.01 2.48 1.33 1.13 1.30 1.28 1.04 2.06 2.85 0.41 4.00 8.79 9.26 8.30 10.77 17.97 18.36 16.83 17.58 18.53 15.35 9.66 5.20 5.03 5.82 7.52 8.93 10.04 10.67 10.65 11.04 12.55 12.53 12.30 12.60 13.05 13.24 14.84 14.72 13.97 12.37
1.16 3.35 3.03 2.14 1.21 1.35 0.74 -0.13 6.90 11.49 14.06 15.81 17.02 15.17 12.20 15.73 17.97 18.78 19.93 19.49 18.77 16.27 5.26 -1.41 -0.31 1.35 2.47 3.59 3.86 5.07 6.67 7.48 9.09 10.80 12.23 12.74 11.82 12.47 12.60 13.50 14.25 13.75 13.54
-2.74 2.31 1.31 1.02 0.07 -0.62 -1.54 -3.21 -4.97 0.56 8.75 10.58 12.17 13.36 14.33 15.71 16.40 17.95 17.64 17.39 12.53 9.85 -6.86 -3.16 -1.99 -0.76 0.38 1.79 2.51 3.53 3.98 6.52 9.45 11.01 11.90 12.66 13.00 13.03 13.01 13.43 14.86 15.60 15.18
-2.69 0.13 -1.68 -1.72 -2.71 -4.08 -4.55 -4.80 -4.77 -6.36 -7.15 -4.19 3.40 7.87 11.63 12.96 14.89 15.42 14.59 8.03 -2.54 -1.65 -11.77 -3.31 -2.33 -0.86 0.04 0.61 1.56 2.20 3.68 5.46 6.89 9.09 12.16 12.45 12.14 12.38 12.92 13.96 15.88 17.50 21.15
-3.18 -2.89 -3.75 -4.03 -4.30 -4.35 -4.70 -4.72 -6.42 -6.67 -6.61 -6.45 -4.07 1.08 2.72 9.13 11.44 10.08 8.95 -11.44 -5.75 -3.51 -2.27 -1.89 -0.53 0.24 0.68 1.27 1.85 2.69 4.06 5.16 7.15 9.10 11.87 13.21 12.55 12.62 12.73 14.69 16.29 18.99 22.12
-4.80 -2.52 -4.14 -9.29 -9.75 -10.36 -7.93 -8.52 -7.33 -8.15 -8.54 -8.88 -6.52 -4.53 -3.61 -3.43 -11.59 -10.82 -11.67 -13.17 -9.84 -4.29 -2.24 -1.40 -0.28 1.00 1.44 1.71 2.21 3.26 4.34 5.83 6.74 8.02 9.44 11.36 14.67 14.28 14.20 15.24 18.16 19.02 20.75
-9.32 -12.14 -8.89 -13.80 -14.27 -13.91 -13.58 -11.96 -9.20 -11.25 -10.17 -9.88 -6.42 -3.05 8.35 -1.39 -9.21 -11.36 -8.81 -8.50 -7.93 -5.44 -4.01 -1.94 -0.65 0.28 1.54 2.39 3.19 3.50 4.95 6.30 7.42 8.12 8.88 9.57 11.43 12.36 15.68 18.66 20.58 21.06 21.37
-15.50 -13.09 -15.49 -14.75 -13.94 -13.97 -13.97 -11.38 -10.86 -11.37 -10.54 -7.61 -5.28 -5.01 4.83 -6.96 -8.40 -9.47 -8.61 -8.80 -7.70 -6.78 -4.75 -3.51 -2.22 -0.29 1.20 2.33 3.11 3.30 5.06 6.96 7.70 8.11 8.07 8.76 10.07 10.93 11.85 13.78 15.55 18.02 18.34
-12.76 -14.43 -17.02 -19.38 -16.99 -14.88 -15.12 -15.89 -14.64 -12.60 -9.08 -7.92 -9.36 -8.95 -11.24 -13.33 -13.61 -12.31 -10.47 -9.57 -8.69 -7.28 -6.23 -5.81 -4.89 -3.40 -1.06 1.22 2.15 3.99 5.36 8.03 9.78 8.87 7.40 7.70 8.87 9.75 10.32 9.75 11.08 11.92 12.55
-14.65 -14.19 -14.05 -16.05 -18.61 -16.48 -14.61 -14.11 -11.93 -8.40 -7.86 -9.31 -15.65 -15.71 -13.03 -13.17 -15.98 -14.10 -12.45 -10.90 -9.58 -8.76 -7.85 -7.47 -6.20 -6.29 -4.28 -3.32 -0.59 2.22 4.36 8.59 11.24 8.81 8.07 7.56 7.92 8.86 9.28 8.98 11.04 11.90 12.63
-21.46 -18.34 -17.69 -14.65 -14.54 -11.43 -12.03 -10.79 -8.59 -8.91 -9.89 -13.42 -13.17 -15.85 -16.98 -16.30 -14.95 -14.69 -13.38 -13.50 -11.57 -10.60 -9.51 -8.65 -7.05 -6.99 -6.48 -5.97 -5.18 -2.79 0.92 8.83 8.78 9.36 8.12 7.71 7.26 7.74 8.01 8.41 9.13 10.39 10.93
-6.92 -8.56 -8.31 -9.01 -10.67 -11.06 -10.06 -8.41 -7.58 -8.47 -11.26 -12.70 -14.39 -16.54 -17.55 -16.09 -14.69 -14.16 -13.47 -13.55 -12.13 -11.27 -11.45 -9.58 -8.18 -9.50 -8.34 -5.56 -4.44 1.08 5.44 12.94 11.18 8.40 7.13 7.53 6.65 6.92 7.38 7.03 7.01 7.76 7.97
MSLP
1029.12 1029.29 1029.44 1029.65 1029.79 1029.97 1030.26 1030.41 1030.47 1030.41 1030.29 1030.10 1029.93 1029.74 1029.59 1029.37 1029.23 1029.16 1029.14 1028.50 1028.19 1027.87 1027.54 1027.18 1026.76 1026.40 1025.85 1025.38 1024.88 1024.56 1023.84 1023.57 1022.64 1021.10 1020.32 1019.57 1019.07 1018.93 1018.39 1018.15 1018.16 1017.99 1017.86
1028.79 1029.01 1029.29 1029.56 1029.79 1029.98 1030.27 1030.26 1030.37 1030.43 1030.35 1030.29 1030.03 1029.79 1029.62 1029.43 1029.15 1029.00 1028.71 1028.42 1028.17 1027.57 1027.16 1026.78 1026.26 1025.91 1025.45 1024.99 1024.63 1024.00 1023.40 1022.92 1022.51 1021.15 1020.31 1019.67 1018.85 1018.36 1018.16 1017.80 1017.51 1017.35 1017.17
1028.72 1029.04 1029.37 1029.66 1029.90 1030.05 1030.09 1030.23 1030.36 1030.34 1030.35 1030.30 1030.11 1029.89 1029.74 1029.53 1029.17 1028.85 1028.59 1028.20 1027.69 1027.19 1026.77 1026.36 1025.75 1025.48 1024.90 1024.50 1024.03 1023.35 1022.76 1022.11 1021.66 1020.91 1019.78 1019.41 1018.60 1018.11 1017.58 1017.23 1016.98 1016.78 1016.48
1028.68 1029.06 1029.43 1029.71 1029.88 1030.01 1030.14 1030.29 1030.29 1030.30 1030.34 1030.30 1030.18 1030.03 1029.87 1029.58 1029.16 1028.64 1028.26 1027.85 1027.38 1026.93 1026.57 1026.11 1025.58 1025.11 1024.43 1023.84 1023.32 1022.78 1022.13 1021.51 1021.11 1020.39 1019.54 1019.01 1018.39 1017.50 1017.22 1017.02 1016.34 1016.23 1015.98
1028.52 1028.99 1029.35 1029.69 1029.89 1030.07 1030.18 1030.34 1030.37 1030.37 1030.37 1030.32 1030.09 1030.04 1029.84 1029.53 1028.76 1028.53 1028.11 1027.59 1027.19 1026.68 1026.37 1025.98 1025.43 1024.85 1024.10 1023.35 1022.75 1022.06 1021.75 1021.21 1020.70 1019.97 1019.09 1018.48 1017.70 1017.43 1017.11 1016.53 1015.94 1015.61 1015.01
1028.11 1028.75 1029.22 1029.63 1029.87 1029.97 1030.18 1030.38 1030.42 1030.40 1030.39 1030.29 1030.14 1030.00 1029.76 1029.36 1028.98 1028.45 1027.85 1027.33 1026.93 1026.52 1025.94 1025.53 1025.16 1024.55 1023.85 1023.17 1022.51 1021.79 1021.25 1020.56 1020.10 1019.61 1018.70 1017.82 1016.94 1016.96 1016.76 1016.32 1015.63 1015.30 1014.44
1028.08 1028.77 1029.22 1029.58 1029.78 1030.01 1030.36 1030.54 1030.56 1030.47 1030.35 1030.23 1030.14 1029.98 1029.74 1029.50 1028.75 1028.06 1027.59 1027.09 1026.57 1026.16 1025.76 1025.17 1024.54 1024.00 1023.56 1022.94 1022.45 1021.71 1021.08 1020.61 1019.81 1019.07 1018.16 1017.53 1017.02 1016.86 1016.63 1016.01 1015.35 1014.60 1013.62
1028.05 1028.71 1029.20 1029.55 1029.74 1030.06 1030.40 1030.54 1030.53 1030.45 1030.40 1030.33 1030.21 1030.07 1029.69 1029.27 1028.48 1027.88 1027.17 1026.60 1026.22 1025.84 1025.37 1024.80 1024.10 1023.33 1022.80 1022.17 1021.45 1020.77 1020.22 1019.73 1019.31 1018.78 1018.06 1017.19 1016.90 1016.71 1016.58 1015.96 1015.25 1014.32 1013.24
1027.82 1028.41 1028.97 1029.18 1029.58 1029.96 1030.40 1030.53 1030.57 1030.58 1030.55 1030.42 1030.13 1029.88 1029.65 1029.20 1028.52 1027.55 1026.80 1026.16 1025.60 1025.17 1024.69 1023.99 1023.25 1022.53 1022.05 1021.24 1020.30 1019.66 1019.08 1018.63 1018.30 1017.63 1016.85 1016.14 1015.57 1015.24 1015.14 1014.98 1014.36 1013.92 1011.74
1027.49 1028.03 1028.71 1029.15 1029.57 1030.03 1030.35 1030.64 1030.78 1030.82 1030.49 1030.25 1029.96 1029.87 1029.54 1028.94 1028.25 1027.27 1026.34 1025.47 1024.75 1024.16 1023.53 1022.73 1022.19 1021.35 1020.51 1019.74 1019.18 1018.69 1017.93 1017.49 1017.02 1016.43 1015.89 1015.36 1014.82 1014.50 1014.26 1014.35 1014.00 1013.06 1011.98
1027.42 1028.12 1028.74 1029.21 1029.66 1030.04 1030.39 1030.68 1030.79 1030.70 1030.49 1030.32 1029.86 1029.46 1029.14 1028.68 1027.76 1026.64 1025.54 1024.46 1023.74 1022.88 1022.17 1021.49 1020.85 1020.12 1019.30 1018.49 1017.78 1017.22 1016.53 1015.97 1015.28 1014.71 1014.23 1013.93 1013.79 1013.50 1013.33 1013.21 1012.84 1012.32 1011.20
1027.57 1028.25 1028.84 1029.20 1029.61 1030.05 1030.34 1030.55 1030.67 1030.71 1030.62 1030.16 1029.62 1028.88 1028.23 1027.58 1026.84 1025.75 1024.55 1023.45 1022.61 1021.91 1021.14 1020.41 1019.61 1018.72 1017.71 1016.82 1016.02 1015.27 1014.58 1014.11 1013.95 1013.77 1013.38 1012.89 1012.62 1012.24 1011.85 1011.60 1011.26 1010.74 1010.10
1027.77 1028.40 1028.75 1029.06 1029.38 1029.81 1030.14 1030.33 1030.53 1030.39 1030.20 1029.69 1029.15 1028.27 1027.28 1026.57 1025.82 1024.67 1023.51 1022.57 1021.66 1020.88 1020.20 1019.08 1017.83 1017.02 1016.31 1015.68 1015.27 1014.69 1014.06 1013.54 1013.15 1012.73 1012.10 1011.50 1011.28 1010.88 1010.59 1010.32 1009.93 1009.55 1008.83
1027.84 1028.23 1028.53 1028.88 1029.06 1029.43 1029.68 1029.76 1029.74 1029.69 1029.40 1028.90 1028.19 1027.33 1026.36 1025.39 1024.53 1023.71 1022.59 1021.48 1020.82 1019.99 1019.07 1018.29 1018.01 1017.57 1016.73 1015.74 1015.07 1014.37 1013.88 1013.37 1012.81 1012.07 1011.28 1010.63 1010.15 1009.77 1009.34 1009.14 1008.58 1008.30 1007.63
1027.66 1028.08 1028.36 1028.69 1028.97 1029.23 1029.21 1028.98 1028.66 1028.44 1028.21 1027.27 1026.37 1025.71 1025.14 1024.51 1023.85 1022.59 1021.66 1020.76 1020.00 1019.41 1018.89 1018.71 1018.40 1017.87 1017.04 1016.16 1015.36 1014.65 1013.98 1013.30 1012.41 1011.48 1010.64 1009.93 1009.37 1008.86 1008.33 1007.96 1007.53 1007.07 1006.31
1027.57 1027.91 1028.09 1028.36 1028.65 1028.81 1028.80 1028.43 1027.84 1026.96 1026.22 1025.52 1024.84 1024.54 1024.31 1023.71 1022.93 1022.17 1021.33 1020.65 1020.12 1019.90 1019.77 1019.75 1019.04 1018.33 1017.49 1016.55 1015.60 1014.56 1013.73 1012.94 1011.99 1010.96 1009.91 1008.87 1008.25 1007.76 1007.25 1006.70 1006.23 1005.59 1004.63
1027.31 1027.57 1027.83 1028.13 1028.37 1028.54 1028.55 1028.40 1027.87 1026.90 1026.23 1025.52 1025.01 1024.64 1024.10 1023.29 1022.72 1021.91 1021.41 1020.87 1021.12 1020.67 1020.93 1020.27 1019.55 1018.68 1017.74 1016.83 1015.88 1014.86 1013.69 1012.66 1011.61 1010.30 1008.99 1007.88 1007.25 1006.75 1006.21 1005.23 1004.31 1003.58 1002.69
1027.17 1027.40 1027.69 1027.91 1028.21 1028.28 1028.29 1028.17 1027.93 1027.48 1026.89 1025.99 1025.57 1024.93 1023.92 1023.36 1022.70 1022.10 1021.89 1021.67 1021.58 1021.19 1021.08 1020.39 1019.50 1018.58 1017.69 1016.74 1015.68 1014.63 1013.37 1012.15 1010.97 1009.63 1008.05 1006.80 1006.31 1005.79 1004.99 1004.07 1002.96 1001.81 1000.08
1027.09 1027.25 1027.47 1027.67 1027.86 1027.98 1028.05 1027.90 1027.69 1027.33 1026.91 1026.22 1025.27 1024.63 1024.30 1023.58 1022.98 1022.73 1022.50 1022.75 1022.43 1021.56 1020.81 1020.03 1019.23 1018.33 1017.38 1016.43 1015.40 1014.24 1013.08 1011.73 1010.44 1009.13 1007.69 1006.24 1005.48 1004.89 1003.89 1002.94 1001.91 1000.77 999.54
1026.60 1026.73 1026.97 1027.30 1027.62 1027.86 1027.76 1027.56 1027.39 1027.13 1026.67 1026.14 1025.53 1024.83 1024.06 1023.61 1023.32 1023.39 1022.89 1022.64 1022.54 1021.74 1020.78 1019.87 1018.89 1018.06 1017.11 1016.10 1014.96 1013.81 1012.50 1011.21 1009.97 1008.81 1007.58 1006.30 1004.88 1003.90 1002.91 1001.86 1000.76 999.87 998.93
1026.16 1026.54 1026.75 1027.02 1027.37 1027.34 1027.21 1027.10 1026.93 1026.65 1026.28 1025.85 1025.28 1024.76 1023.73 1023.46 1023.64 1023.56 1023.13 1022.49 1022.04 1021.46 1020.62 1019.68 1018.76 1017.84 1016.84 1015.78 1014.68 1013.57 1012.35 1011.03 1009.85 1008.65 1007.42 1006.19 1004.94 1003.69 1002.41 1001.10 999.82 999.00 998.45
1026.24 1026.49 1026.78 1026.90 1026.72 1026.86 1026.68 1026.51 1026.26 1025.99 1025.76 1025.48 1024.88 1024.53 1023.94 1023.93 1023.69 1023.32 1022.67 1022.16 1021.65 1021.19 1020.49 1019.74 1018.79 1017.81 1016.84 1015.78 1014.65 1013.44 1012.06 1010.62 1009.44 1008.41 1007.37 1006.20 1004.94 1003.75 1002.58 1001.26 1000.09 999.12 998.52
1025.99 1026.22 1026.46 1026.49 1026.28 1026.17 1026.06 1025.82 1025.59 1025.44 1025.25 1024.97 1024.75 1024.46 1024.24 1023.89 1023.63 1023.16 1022.55 1021.92 1021.30 1020.67 1019.98 1019.35 1018.51 1017.44 1016.46 1015.54 1014.63 1013.46 1012.05 1010.39 1009.11 1008.38 1007.39 1006.22 1005.04 1003.92 1002.84 1001.79 1000.80 999.96 999.47
1025.44 1025.59 1025.73 1025.73 1025.70 1025.51 1025.30 1025.11 1024.95 1024.82 1024.68 1024.42 1024.34 1024.33 1023.98 1023.48 1023.26 1022.80 1022.20 1021.55 1020.88 1020.20 1019.59 1018.89 1018.07 1017.21 1016.23 1015.33 1014.25 1013.13 1011.93 1010.43 1009.06 1008.28 1007.40 1006.42 1005.37 1004.29 1003.27 1002.31 1001.50 1000.89 1000.44
1024.91 1025.19 1025.20 1025.02 1024.97 1024.78 1024.62 1024.50 1024.34 1024.20 1024.09 1024.00 1023.88 1023.87 1023.29 1023.06 1022.67 1022.17 1021.60 1021.11 1020.51 1019.84 1019.02 1018.37 1017.41 1016.53 1015.77 1014.92 1013.97 1012.85 1011.51 1009.93 1008.91 1008.12 1007.33 1006.53 1005.68 1004.82 1004.02 1003.31 1002.62 1001.99 1001.58
1024.08 1024.19 1024.18 1024.15 1024.12 1024.00 1023.93 1023.85 1023.69 1023.58 1023.47 1023.38 1023.37 1023.23 1023.00 1022.63 1022.12 1021.67 1021.10 1020.59 1020.00 1019.34 1018.74 1017.85 1016.84 1016.09 1015.32 1014.42 1013.44 1012.33 1011.21 1009.66 1008.73 1008.26 1007.60 1006.88 1006.18 1005.45 1004.82 1004.30 1003.76 1003.31 1003.05
Wind_Speed
6 5 6 5 6 6 5 5 5 4 5 6 6 6 6 6 6 5 6 7 8 8 6 6 9 6 6 5 5 6 6 5 10 10 8 5 5 8 8 5 6 7 7
5 5 5 4 4 5 4 5 5 5 5 5 5 5 5 6 6 7 10 8 8 10 10 9 10 7 9 7 6 9 8 7 8 14 11 10 7 6 8 8 7 6 7
5 5 4 3 3 3 4 4 4 4 4 5 5 6 7 8 8 8 9 9 10 11 12 12 12 11 11 9 8 9 9 8 8 9 11 9 9 4 6 6 7 9 6
5 5 4 4 3 2 3 3 3 4 4 5 5 6 7 8 10 8 10 12 12 12 13 13 14 14 13 12 11 11 10 9 9 10 11 10 9 7 4 6 9 4 8
6 6 5 4 3 3 3 2 3 3 4 5 7 6 7 8 8 12 12 13 13 14 13 13 13 16 25 23 14 13 13 11 10 13 12 11 10 7 8 5 8 6 7
7 6 5 3 3 3 3 4 3 4 4 5 6 7 8 8 18 19 18 13 14 14 14 13 13 15 17 24 26 30 25 15 13 11 12 13 14 11 9 8 10 9 11
6 5 5 4 3 3 2 2 4 4 5 6 6 7 9 9 18 22 23 12 13 13 14 14 14 11 14 14 20 26 24 26 27 18 16 14 14 12 12 12 11 11 13
6 6 5 4 3 2 1 2 3 3 5 7 7 8 9 9 21 22 23 13 12 13 13 14 14 15 14 16 16 16 15 14 14 13 15 17 16 14 16 16 16 18 14
7 6 5 3 3 2 2 3 3 4 5 6 7 7 8 11 20 22 20 12 12 13 13 14 14 15 21 26 17 15 13 12 15 25 29 31 29 29 24 13 13 13 14
6 5 4 3 3 1 2 3 1 3 7 7 8 8 10 12 19 21 18 10 11 10 12 14 20 21 26 26 16 14 14 13 14 14 14 19 22 18 27 17 12 14 15
5 5 4 3 2 1 1 1 2 4 7 6 9 8 9 11 13 21 21 12 10 11 10 9 10 26 28 28 27 15 16 18 19 17 14 12 11 11 11 11 14 14 15
5 4 3 1 1 1 1 2 3 4 5 6 7 8 6 9 15 18 22 23 22 13 13 11 13 28 30 31 27 27 30 25 10 10 11 11 12 11 12 13 16 17 16
5 4 2 1 2 2 2 4 3 3 4 6 6 7 8 8 8 19 23 25 25 16 12 20 32 31 30 22 23 28 24 11 10 11 12 13 12 12 15 14 15 19 21
5 4 3 3 2 3 3 4 3 4 5 6 6 8 8 7 8 9 10 10 16 16 19 10 17 23 24 21 14 13 9 10 12 13 13 13 12 11 12 11 12 12 14
4 3 3 2 3 4 5 5 5 6 7 7 8 6 7 7 9 19 19 13 12 15 17 10 9 9 8 9 9 9 9 9 10 11 12 12 12 12 12 11 11 12 14
4 4 4 3 3 4 4 5 12 16 17 17 18 11 4 16 21 22 24 24 25 26 8 7 9 9 10 10 11 11 11 12 11 12 12 11 12 11 12 12 12 14 14
4 4 3 4 3 4 4 4 6 6 12 9 9 13 16 15 19 20 21 22 19 15 3 7 8 9 10 10 10 11 12 12 14 12 12 12 10 11 13 13 13 12 13
5 7 3 3 4 3 4 5 4 5 6 5 7 12 13 15 17 18 18 15 8 6 2 6 8 9 9 10 11 11 12 12 12 12 14 10 10 11 11 12 13 15 13
5 4 4 4 4 5 4 4 4 5 5 6 7 6 7 15 14 14 13 0 6 8 8 8 8 9 10 10 10 11 12 12 12 12 12 9 10 10 11 12 12 17 15
5 8 5 3 3 3 4 4 4 4 4 4 5 6 6 4 3 3 2 3 3 6 7 8 9 9 9 10 11 11 11 12 12 11 11 11 10 9 11 12 11 11 10
3 3 5 3 4 4 4 4 4 4 4 4 6 6 15 2 3 3 5 4 4 7 8 8 10 10 9 10 11 11 11 11 11 11 11 11 11 11 10 10 10 9 8
2 4 3 4 3 4 4 4 4 4 4 5 6 5 13 3 5 5 5 5 6 6 7 8 9 9 9 10 11 12 12 12 11 11 11 11 11 10 9 9 7 5 3
4 4 4 3 3 4 4 4 4 4 5 5 4 5 4 4 4 5 6 7 6 7 7 7 8 9 8 9 10 10 12 13 10 10 11 11 10 9 8 7 6 4 3
4 4 4 4 2 3 4 4 4 6 6 5 4 4 5 5 5 6 6 6 7 7 7 7 8 10 10 10 10 11 12 13 7 9 11 9 9 9 7 6 5 5 4
3 3 4 4 4 4 4 5 5 5 5 4 5 4 3 4 5 6 6 5 6 7 9 9 8 9 12 16 15 16 18 24 7 11 8 9 9 10 8 6 6 5 6
4 4 4 3 4 4 5 5 6 5 5 5 5 4 5 6 6 6 7 6 6 7 10 8 10 12 14 12 13 18 19 22 9 12 8 7 7 7 6 7 9 6 7
Wind_Direction
136 134 119 95 73 64 58 42 28 17 12 11 2 357 353 349 344 335 323 315 318 309 301 289 297 287 292 290 289 281 272 250 266 284 284 284 255 262 273 253 246 240 247
159 133 117 103 76 61 43 26 18 11 2 346 345 345 337 336 334 327 321 316 305 306 306 302 296 295 292 285 274 279 275 268 270 279 283 287 261 245 254 267 263 240 235
161 146 129 120 94 65 39 24 14 355 346 352 359 351 341 335 328 318 304 304 304 303 304 302 302 302 295 289 280 284 283 278 273 274 279 279 283 264 268 255 256 261 244
175 170 169 171 128 84 60 39 21 3 359 358 354 344 339 332 323 315 323 317 310 304 303 302 301 299 295 294 287 283 281 279 280 278 279 280 275 281 247 276 272 233 257
179 178 183 166 130 101 74 38 12 17 8 351 341 338 335 329 327 327 318 310 308 306 307 304 300 300 301 298 295 290 286 280 278 282 281 277 273 273 267 267 266 271 251
181 184 168 137 136 91 52 19 3 358 352 341 339 330 327 325 322 318 317 311 308 305 304 304 298 292 293 297 296 294 290 286 276 274 274 267 271 272 271 269 270 275 286
160 158 159 146 110 68 31 3 350 341 336 335 330 325 317 313 316 318 316 308 303 301 302 302 300 298 299 294 291 290 293 292 285 287 284 278 289 293 295 281 271 258 264
167 165 168 156 115 115 81 357 339 342 338 325 317 308 306 310 314 315 313 310 302 296 293 294 292 291 287 290 286 281 277 272 273 269 269 277 276 279 273 275 279 282 279
180 177 172 125 89 37 360 343 336 327 317 301 302 311 303 299 308 310 314 303 298 291 289 285 283 287 287 288 284 282 280 280 279 280 282 284 286 289 288 281 267 275 260
175 160 139 119 114 15 341 328 277 296 301 309 302 299 290 291 301 306 311 297 294 290 283 283 282 286 289 292 287 283 278 272 268 266 266 269 271 271 270 269 284 273 267
134 127 130 112 101 320 290 273 284 299 300 292 291 288 277 277 284 303 306 301 293 287 286 287 279 284 290 289 285 274 265 267 263 264 264 261 262 268 266 260 258 261 262
136 142 148 126 316 287 223 277 288 278 281 283 288 290 274 276 282 298 307 305 305 302 291 285 280 280 281 281 280 278 279 289 296 286 276 269 269 265 262 261 262 265 268
146 162 174 220 258 257 245 274 273 248 263 283 286 290 293 287 277 291 302 300 303 301 291 289 300 304 308 310 301 294 290 277 271 268 267 267 264 265 266 265 262 268 274
160 192 208 238 275 259 264 255 225 246 260 265 269 276 280 285 307 300 288 293 305 302 294 313 322 319 310 306 312 303 293 286 283 278 277 277 278 273 269 263 266 268 263
161 183 219 233 238 264 258 251 251 248 241 246 250 264 297 306 299 310 321 317 318 328 335 331 330 322 315 311 307 303 300 296 289 280 274 273 270 270 268 263 265 265 259
178 201 212 215 229 253 263 279 278 281 284 287 293 295 292 306 312 322 323 330 345 335 355 329 320 318 316 315 312 310 307 302 294 290 289 271 263 268 269 266 261 255 257
190 205 207 225 228 242 257 263 290 304 302 296 295 312 311 312 325 323 335 338 346 346 329 313 311 313 312 309 307 306 303 302 299 291 284 275 269 267 269 267 267 261 257
199 222 205 221 232 234 241 251 258 277 297 299 293 305 313 325 323 337 338 353 333 332 269 305 308 309 307 305 306 305 304 305 303 300 295 270 263 264 268 270 276 283 254
206 217 211 223 227 233 242 248 250 256 261 274 305 304 302 319 326 344 351 166 312 319 318 313 308 306 305 304 303 302 302 303 304 305 312 288 269 266 266 267 273 278 291
215 229 213 200 220 230 240 239 252 250 256 265 280 291 303 291 347 313 299 288 279 295 303 307 310 308 307 307 307 307 308 312 313 311 313 313 305 269 266 270 271 280 290
203 212 221 210 217 221 224 232 240 237 251 256 268 273 293 3 310 279 297 296 297 307 307 311 312 310 311 311 312 311 309 307 314 312 314 313 313 311 305 303 281 266 271
195 225 213 222 219 231 234 232 235 238 244 259 277 280 305 319 298 295 299 292 292 286 289 296 299 303 307 312 314 313 311 312 313 317 315 313 313 313 314 312 309 304 287
221 228 229 239 225 237 244 237 235 235 250 252 262 281 278 266 272 280 287 290 291 295 294 294 294 298 303 309 308 307 310 316 312 314 314 315 316 318 318 319 328 333 356
213 223 234 241 235 233 237 244 241 243 252 260 260 263 268 274 270 276 276 284 293 292 291 290 289 290 299 307 310 306 310 309 323 316 318 315 320 325 326 325 346 2 21
212 231 232 239 240 243 250 251 253 251 259 257 268 265 259 271 276 276 277 270 280 290 296 296 291 295 302 307 302 305 310 316 331 343 331 328 332 340 347 351 355 15 39
226 227 240 238 240 237 241 252 256 261 264 266 258 258 267 278 280 279 284 283 286 295 295 289 294 297 303 304 302 309 315 318 13 356 342 342 348 355 360 7 14 24 30